"Pseudo-MPEC" for P117YzJ

Created 2020 Oct 19 11:07:30 UT using Find_Orb

Click here for an explanation of pseudo-MPECs

 
 Astrometry: 
     P117YzJ  C2020 10 15_x,=7:!cNhqPKJ%DPUlFX3#R(#k5XDM=v444(6QV$#`)Mf'Xus$SF51
     P117YzJ  C2020 10 15,[`59Q$qOQi%?#mH9E$qH?AstrometryTOredacted;+[-T13;GMF51
     P117YzJ  C2020 10 15*`$.W-9F3YJ[=%95MXi#c%dCYP1Nw^X]=fnJZo7msrN6wclickAKF51
     P117YzJ  C2020 10 15%o\=NF;avL6Mdn0'5Y,oNCG;j]mecre2T]`TRG+X7XB,CJuVD*S`F51
     P117YzJ KC2020 10 16.39054602 05 14.30 +15 41 19.6    ~AGA7 22.06GVNEOCPV06
     P117YzJ KC2020 10 16.39510102 05 13.65 +15 41 14.6    ~AGA7 21.92GVNEOCPV06
     P117YzJ KC2020 10 16.39965802 05 12.96 +15 41 10.0    ~AGA7 21.68GVNEOCPV06
     P117YzJ KC2020 10 16.40421302 05 12.34 +15 41 05.0    ~AGA7 21.60GVNEOCPV06
     P117YzJ  C2020 10 16QI*ho+h5qvL1*$hereY5\pn$Vk(+G8)Qli\;s$1CdSX[)*m3.IDPF51
     P117YzJ  C2020 10 16qa+lcCvn5?**m.o6Ln.+R!s:[v^1G`rck?iotX4$c'forf2q95e!F51
     P117YzJ  C2020 10 16tqVm17ioH60uSUnYDc-#Qe@YR,PEuppgV=SmaHoQ2j+B8f!LCS7=F51
     P117YzJ KC2020 10 17.28217902 03 07.74 +15 24 59.6    ~AH77 22.25GVNEOCPV06
     P117YzJ KC2020 10 17.28614002 03 07.17 +15 24 55.2    ~AH77 21.79GVNEOCPV06
     P117YzJ KC2020 10 17.29012402 03 06.57 +15 24 50.9    ~AH77 21.70GVNEOCPV06
     P117YzJ  C2020 10 17fCJpByfBo.xgaexplanationk(c;Yv_x]^yc\,yrx#i@#/cL=;m$F51
     P117YzJ  C2020 10 17auh/aM69dNmM0y(dLA;D$=KBYr@nBv#`]*PQI%DP5CXyI8A9?C0DF51
     P117YzJ  C2020 10 17ei=?ceb_BHwLyNu$rLmo^G?QB]j;T`EDWe-B'Gd)Dj\r@`jl._*UF51
     P117YzJ KC2020 10 18.31556802 00 38.41 +15 05 37.2    ~AI87 21.46GVNEOCPV06
     P117YzJ KC2020 10 18.32673802 00 36.75 +15 05 24.1    ~AI87 21.77GVNEOCPV06
     P117YzJ KC2020 10 18.32990802 00 36.27 +15 05 20.3    ~AI87 21.64GVNEOCPV06
     P117YzJ KC2020 10 19.21495101 58 27.27 +14 48 22.2    ~AJ5q 22.06GVNEOCPV06
     P117YzJ KC2020 10 19.22651601 58 25.54 +14 48 08.6    ~AJ5q 21.80GVNEOCPV06
     P117YzJ KC2020 10 19.22968401 58 25.02 +14 48 05.0    ~AJ5q 21.63GVNEOCPV06

Station data:
(F51) Pan-STARRS 1, Haleakala  (N20.707235 W156.255910)  US/Hawaii.
   Observers N. Primak, A. Schultz, S. Watters, J. Thiel, T. Goggia. Measurer
   PS1 Science Consortium. 1.8-m Ritchey-Chrétien + CCD.
(V06) Catalina Sky Survey-Kuiper  (N32.416847 W110.732550)  US/Arizona.
   Observers T. A. Pruyne, B. M. Africano, E. J. Christensen, G. A. Farneth,
   D. C. Fuls, A. R. Gibbs, A. D. Grauer, H. Gröller, J. A. Johnson, R. A.
   Kowalski, S. M. Larson, G. J. Leonard, D. Rankin, R. L. Seaman, F. C.
   Shelly. 1.55-m reflector + CCD.

Orbital elements:  P117YzJ
   Perihelion 2021 Mar 28.175530 +/- 1.12 TT =  4:12:45 (JD 2459301.675530)
Epoch 2020 Oct 19.0 TT = JDT 2459141.5   Earth MOID: 0.1282   Me: 0.0698
M 234.11670591 +/- 1.8              Ma: 0.0652                AutoNEOCP
n   0.78590839 +/- 0.00608          Peri.  340.37494 +/- 0.45
a   1.16293318 +/- 0.006            Node   214.29097 +/- 0.23
e   0.6927442 +/- 0.0208            Incl.   12.71298 +/- 0.7
P   1.25/458.06d           H 20.7   G  0.15   U  9.3  
q 0.35731795 +/- 0.0221    Q 1.96854841 +/- 0.0339
From 23 observations 2020 Oct. 15-19; mean residual 0".16
Residuals in arcseconds: 
201015 F51  .28+  .04+    201016 F51  .02-  .07-    201017 F51  .16-  .18+    
201015 F51  .06+  .01+    201016 F51  .21+  .12-    201018 V06  .07-  .28+    
201015 F51  .20-  .05+    201016 F51  .01-  .09-    201018 V06  .02+  .09-    
201015 F51  .17-  .10-    201017 V06  .13-  .02-    201018 V06  .08-  .28-    
201016 V06  .03-  .16-    201017 V06  .05+  .03-    201019 V06  .17+  .13+    
201016 V06  .11+  .18-    201017 V06  .16-  .08+    201019 V06  .27+  .12-    
201016 V06  .33-  .21+    201017 F51  .12+  .06-    201019 V06  .36-  .06-    
201016 V06  .24+  .19+    201017 F51  .15+  .15+    

Ephemerides (geocentric):
Date (UTC) HH   RA              Dec         delta   r     elong  mag " sig PA
---- -- -- --  -------------   -----------  ------ ------ -----  --- ---- ---
2020 10 19 11  01 57 51.084   +14 43 42.21  .84656 1.8393 173.2 22.1 .132  85
2020 10 19 12  01 57 44.940   +14 42 53.55  .84635 1.8391 173.3 22.1 .135  83
2020 10 19 13  01 57 38.793   +14 42 04.85  .84614 1.8390 173.3 22.1 .138  82
2020 10 19 14  01 57 32.643   +14 41 16.10  .84593 1.8388 173.4 22.0 .141  81
2020 10 19 15  01 57 26.491   +14 40 27.31  .84572 1.8386 173.5 22.0 .144  79
2020 10 19 16  01 57 20.335   +14 39 38.48  .84552 1.8385 173.5 22.0 .147  78
2020 10 19 17  01 57 14.177   +14 38 49.61  .84531 1.8383 173.6 22.0 .150  77
2020 10 19 18  01 57 08.016   +14 38 00.69  .84511 1.8382 173.7 22.0 .153  76
2020 10 19 19  01 57 01.852   +14 37 11.74  .84490 1.8380 173.7 22.0 .156  74
2020 10 19 20  01 56 55.685   +14 36 22.74  .84470 1.8378 173.8 22.0 .158  73
2020 10 19 21  01 56 49.516   +14 35 33.70  .84449 1.8377 173.9 22.0 .161  72
2020 10 19 22  01 56 43.344   +14 34 44.62  .84429 1.8375 173.9 22.0 .164  71
2020 10 19 23  01 56 37.169   +14 33 55.49  .84409 1.8374 174.0 22.0 .166  70
2020 10 20 00  01 56 30.991   +14 33 06.33  .84389 1.8372 174.1 22.0 .168  69
2020 10 20 01  01 56 24.811   +14 32 17.12  .84368 1.8370 174.1 22.0 .171  68
2020 10 20 02  01 56 18.628   +14 31 27.88  .84348 1.8369 174.2 22.0 .173  67
2020 10 20 03  01 56 12.443   +14 30 38.59  .84328 1.8367 174.2 22.0 .175  66
2020 10 20 04  01 56 06.254   +14 29 49.26  .84308 1.8366 174.3 22.0 .177  65
2020 10 20 05  01 56 00.064   +14 28 59.89  .84288 1.8364 174.4 22.0 .179  64
2020 10 20 06  01 55 53.870   +14 28 10.48  .84269 1.8363 174.4 22.0 .181  63
2020 10 20 07  01 55 47.674   +14 27 21.03  .84249 1.8361 174.5 22.0 .183  62
2020 10 20 08  01 55 41.475   +14 26 31.54  .84229 1.8359 174.6 22.0 .184  60
2020 10 20 09  01 55 35.274   +14 25 42.00  .84209 1.8358 174.6 22.0 .186  59
2020 10 20 10  01 55 29.070   +14 24 52.43  .84190 1.8356 174.7 22.0 .187  58
2020 10 20 11  01 55 22.864   +14 24 02.82  .84170 1.8354 174.8 22.0 .188  57
2020 10 20 12  01 55 16.655   +14 23 13.16  .84151 1.8353 174.8 22.0 .189  56
2020 10 20 13  01 55 10.444   +14 22 23.47  .84131 1.8351 174.9 22.0 .190  55
2020 10 20 14  01 55 04.230   +14 21 33.73  .84112 1.8350 175.0 22.0 .191  54
2020 10 20 15  01 54 58.013   +14 20 43.96  .84092 1.8348 175.0 22.0 .192  53
2020 10 20 16  01 54 51.794   +14 19 54.15  .84073 1.8346 175.1 22.0 .193  52
2020 10 20 17  01 54 45.573   +14 19 04.29  .84054 1.8345 175.1 22.0 .193  51
2020 10 20 18  01 54 39.349   +14 18 14.40  .84035 1.8343 175.2 22.0 .193  49
2020 10 20 19  01 54 33.123   +14 17 24.47  .84016 1.8342 175.3 22.0 .194  48
2020 10 20 20  01 54 26.895   +14 16 34.50  .83997 1.8340 175.3 22.0 .194  47
2020 10 20 21  01 54 20.664   +14 15 44.48  .83978 1.8338 175.4 22.0 .194  46
2020 10 20 22  01 54 14.430   +14 14 54.43  .83959 1.8337 175.5 22.0 .194  44
2020 10 20 23  01 54 08.195   +14 14 04.34  .83940 1.8335 175.5 22.0 .193  43
2020 10 21 00  01 54 01.956   +14 13 14.22  .83921 1.8334 175.6 22.0 .193  42
2020 10 21 01  01 53 55.716   +14 12 24.05  .83902 1.8332 175.6 21.9 .193  40
2020 10 21 02  01 53 49.473   +14 11 33.84  .83883 1.8330 175.7 21.9 .192  39
2020 10 21 03  01 53 43.228   +14 10 43.60  .83865 1.8329 175.8 21.9 .192  37
2020 10 21 04  01 53 36.981   +14 09 53.31  .83846 1.8327 175.8 21.9 .191  35
2020 10 21 05  01 53 30.732   +14 09 02.99  .83828 1.8325 175.9 21.9 .190  34
2020 10 21 06  01 53 24.480   +14 08 12.63  .83809 1.8324 175.9 21.9 .190  32
2020 10 21 07  01 53 18.226   +14 07 22.23  .83791 1.8322 176.0 21.9 .189  30
2020 10 21 08  01 53 11.970   +14 06 31.79  .83772 1.8321 176.1 21.9 .188  28
2020 10 21 09  01 53 05.711   +14 05 41.32  .83754 1.8319 176.1 21.9 .188  26
2020 10 21 10  01 52 59.450   +14 04 50.80  .83736 1.8317 176.2 21.9 .187  24